Minot AFB, ND

11:31 AM CST on November 22, 2019 (GMT -0600)
Minot Air Force Base

Weather History for KMIB - August, 2019

Change the Weather History Date:

Thursday, August 22, 2019

  Actual Average Record
Temperature  
Mean Temperature 63 °F -  
Max Temperature 81 °F 80 °F 95 °F (2011)
Min Temperature 46 °F 53 °F 42 °F (1996)
Degree Days  
Heating Degree Days 2    
Growing Degree Days 13 (Base 50)    
Moisture  
Dew Point 50 °F    
Average Humidity 71    
Maximum Humidity 94    
Minimum Humidity 39    
Precipitation  
Precipitation 0.00 in - - ()
Sea Level Pressure  
Sea Level Pressure 30.00 in    
Wind  
Wind Speed 9 mph ()    
Max Wind Speed 21 mph    
Max Gust Speed 29 mph    
Visibility 10.0 miles    
Events      
Averages and records for this station are not official NWS values.
T = Trace of Precipitation, MM = Missing Value Source: Averaged Metar Reports

Daily Weather History Graph

Daily Weather History Graph

Search for Another Location

Airport or City:

Astronomy

Aug. 22, 2019 Rise Set
Actual Time 6:48 AM CDT 8:46 PM CDT
Civil Twilight 6:15 AM CDT 9:20 PM CDT
Nautical Twilight 5:33 AM CDT 10:01 PM CDT
Astronomical Twilight 4:47 AM CDT 10:47 PM CDT
Moon No Moon Rise 1:57 PM CDT
Length of Visible Light 15h 05m
Length of Day
13h 58m
Waning Gibbous, 59% of the Moon is Illuminated
Aug 22
Waning Gibbous
Aug 23
Last Quarter
Aug 30
New
Sep 5
First Quarter
Sep 13
Full

Hourly Weather History & Observations

Time (CDT) Temp. Windchill Dew Point Humidity Pressure Visibility Wind Dir Wind Speed Gust Speed Precip Events Conditions
12:56 AM 50.4 °F - 44.1 °F 79% 30.09 in 10.0 mi SE 4.6 mph - N/A   Clear
1:56 AM 51.8 °F - 44.6 °F 76% 30.08 in 10.0 mi ENE 5.8 mph - N/A   Clear
2:56 AM 50.9 °F - 46.9 °F 86% 30.06 in 10.0 mi East 9.2 mph - N/A   Clear
3:56 AM 49.8 °F - 46.4 °F 88% 30.06 in 10.0 mi East 8.1 mph - N/A   Clear
4:56 AM 49.3 °F - 46.4 °F 90% 30.04 in 10.0 mi ESE 8.1 mph - N/A   Clear
5:56 AM 46.4 °F 42.9 °F 44.4 °F 93% 30.05 in 10.0 mi ESE 6.9 mph - N/A   Clear
6:56 AM 46.6 °F - 45.0 °F 94% 30.05 in 10.0 mi ESE 9.2 mph - N/A   Clear
7:56 AM 50.2 °F - 48.0 °F 92% 30.04 in 10.0 mi ESE 10.4 mph - N/A   Clear
8:56 AM 54.5 °F - 49.5 °F 83% 30.04 in 10.0 mi SE 11.5 mph - N/A   Clear
9:56 AM 59.7 °F - 50.4 °F 71% 30.03 in 10.0 mi ESE 8.1 mph - N/A   Clear
12:56 PM 75.7 °F - 54.7 °F 48% 30.00 in 10.0 mi SE 16.1 mph - N/A   Clear
1:56 PM 77.7 °F - 53.4 °F 43% 29.96 in 10.0 mi SE 19.6 mph 28.8 mph N/A   Clear
4:56 PM 80.1 °F - 52.9 °F 39% 29.93 in 10.0 mi SE 20.7 mph 27.6 mph N/A   Clear
6:56 PM 78.1 °F - 55.6 °F 46% 29.93 in 10.0 mi SE 19.6 mph 26.5 mph N/A   Clear
7:56 PM 73.9 °F - 55.2 °F 52% 29.93 in 10.0 mi ESE 12.7 mph - N/A   Clear
8:56 PM 69.8 °F - 54.9 °F 59% 29.94 in 10.0 mi ESE 12.7 mph - N/A   Clear
9:56 PM 66.6 °F - 54.5 °F 65% 29.94 in 10.0 mi ESE 13.8 mph - N/A   Clear
10:56 PM 64.6 °F - 53.4 °F 67% 29.93 in 10.0 mi SE 16.1 mph - N/A   Clear
11:56 PM 62.6 °F - 53.6 °F 72% 29.95 in 10.0 mi SE 15.0 mph - N/A   Clear